User: anonymous   Login
Location: Unspecified
(0.0000°N, 0.0000°E)
Time: 00:54:16
(UTC+00:00)
Language:

Orbcomm D8 (FM36) - Orbit

View from above orbital plane
View from above orbital plane
View from above satellite
View from above satellite

Ground track
Ground track

The orbit data is extracted from the following two-line orbital elements,

1 25984U 99065E   17324.45406598 -.00000056 +00000-0 +30913-4 0  9997
2 25984 045.0368 146.5989 0002795 174.1424 185.9455 14.32567960937632
Epoch (UTC): 20 November 2017 10:53:51
Eccentricity: 0.0002795
inclination: 45.0368°
perigee height: 781 km
apogee height: 785 km
right ascension of ascending node: 146.5989°
argument of perigee: 174.1424°
revolutions per day: 14.32567960
mean anomaly at epoch: 185.9455°
orbit number at epoch: 93763

The dashed part of the orbit path shows where the satellite is in the earth's shadow,  

DLR